Flag for Canada

Past Weather in Calgary, Alberta, Canada — Yesterday and Last 2 Weeks

Now
63 °F

Broken clouds.


Feels Like: 63 °F
Forecast: 72 / 47 °F
Wind: 9 mph from North

Location: Calgary International

Current Time: Jul 13, 2020 at 7:39:40 pm

Latest Report: Jul 13, 2020 at 6:00 pm


Visibility: 40 mi

Pressure: 29.91 "Hg (26.39 "Hg at 1063m altitude)

Humidity: 42%

Dew Point: 39 °F

Location of CalgaryLocation

Past Weather in Calgary — Graph

°F

Calgary Temperature Yesterday

Maximum temperature yesterday: 68 °F (at 12:00 am)
Minimum temperature yesterday: 54 °F (at 9:00 pm)
Average temperature yesterday: 62 °F

High & Low Weather Summary for the Past Weeks

 TemperatureHumidityPressure
High75 °F (Jul 3, 5:00 pm)100% (Jun 30, 4:00 pm)30.14 "Hg (Jun 30, 4:00 pm)
Low45 °F (Jul 5, 4:00 am)15% (Jul 3, 3:00 pm)29.47 "Hg (Jul 1, 6:00 pm)
Average59 °F65%29.87 "Hg
* Reported Jun 28 6:00 pm — Jul 13 6:00 pm, Calgary. Weather by CustomWeather, © 2020

Note: Actual official high and low records may vary slightly from our data, if they occured in-between our weather recording intervals... More about our weather records

Calgary Weather History for the Previous 24 Hours

Scroll right to see more
 ConditionsComfort  
Time TempWeatherWind HumidityBarometerVisibility
6:00 pm
Mon, Jul 13
63 °FBroken clouds.9 mph42%29.91 "Hg40 mi
5:00 pm59 °FPartly sunny.7 mph55%29.93 "Hg30 mi
4:00 pm64 °FPartly sunny.10 mph30%29.90 "Hg40 mi
3:00 pm63 °FPartly sunny.18 mph32%29.91 "Hg40 mi
2:00 pm64 °FPartly sunny.7 mph28%29.90 "Hg40 mi
1:00 pm61 °FBroken clouds.5 mph39%29.92 "Hg40 mi
12:00 pm61 °FScattered clouds.5 mph36%29.92 "Hg40 mi
11:00 am61 °FPartly sunny.7 mph36%29.92 "Hg40 mi
10:00 am59 °FPartly sunny.13 mph36%29.92 "Hg40 mi
9:00 am54 °FPartly sunny.3 mph51%29.94 "Hg40 mi
8:00 am55 °FPartly sunny.6 mph51%29.93 "Hg40 mi
7:00 am52 °FPassing clouds.2 mph58%29.93 "Hg40 mi
6:00 am50 °FPassing clouds.5 mph62%29.92 "Hg40 mi
5:00 am50 °FPartly cloudy.6 mph67%29.92 "Hg10 mi
4:00 am52 °FSprinkles. Passing clouds.8 mph62%29.90 "Hg7 mi
3:29 am52 °FRain showers. Overcast.13 mph62%29.89 "Hg5 mi
3:00 am52 °FLight rain. Overcast.5 mph67%29.88 "Hg7 mi
2:17 am52 °FSprinkles. Passing clouds.9 mph77%29.89 "Hg10 mi
2:00 am52 °FScattered showers. Partly cloudy.10 mph77%29.88 "Hg10 mi
1:39 am52 °FScattered showers. Partly cloudy.10 mph82%29.88 "Hg10 mi
1:00 am52 °FSprinkles. Passing clouds.7 mph82%29.88 "Hg10 mi
12:36 am52 °FSprinkles. Partly cloudy.7 mph77%29.89 "Hg7 mi
12:00 am54 °FPassing clouds.5 mph67%29.88 "Hg10 mi
11:00 pm
Sun, Jul 12
54 °FPassing clouds.6 mph77%29.88 "Hg10 mi
10:00 pm54 °FScattered showers. Partly cloudy.3 mph72%29.87 "Hg10 mi
9:00 pm54 °FScattered showers. Broken clouds.3 mph72%29.85 "Hg10 mi
8:00 pm55 °FScattered showers. Broken clouds.12 mph63%29.84 "Hg15 mi
7:26 pm57 °FScattered showers. Broken clouds.13 mph63%29.84 "Hg15 mi
Weather by CustomWeather, © 2020

See weather overview